Regional Weather Roundup
Issued by NWS

Home | Current Version | Previous Version | Text Only | Print | Product List | Glossary On
Versions: 1 2 3 4 5 6 7 8 9 10 11 12 13 14 15 16 17 18 19 20 21 22 23 24 25 26 27 28 29 30 31 32 33 34 35 36 37 38 39 40 41 42 43 44 45 46 47 48 49 50
000
ASUS42 KKEY 212110
RWRKEY

FLORIDA REGIONAL WEATHER ROUNDUP FOR THE FLORIDA KEYS
NATIONAL WEATHER SERVICE KEY WEST FLORIDA
500 PM EDT SAT OCT 21 2017

...SOUTH FLORIDA AND THE KEYS...

CITY           SKY/WX    TMP DP  RH WIND       PRES   REMARKS
FORT MYERS     PTSUNNY   80  73  79 NE13G20   30.04R
SW REGIONAL AP CLOUDY    82  74  76 NE18      30.04S
NAPLES         PTSUNNY   84  73  69 E16G26    30.02R HX  90
MIAMI          PTSUNNY   83  75  77 E14G24    30.03S HX  90
WEST KENDALL   CLOUDY    83  74  74 E18G25    30.02S
HOMESTEAD      MOSUNNY   83  78  87 E17       30.01S HX  93
MARATHON       PTSUNNY   85  74  69 E15G24    29.99R HX  92
KEY WEST INTL  CLOUDY    84  76  76 E16G24    29.98S HX  93

...INTERNATIONAL WEATHER...

CITY           SKY/WX    TMP DP  RH WIND       PRES   REMARKS
NASSAU BAHAMAS NOT AVBL
CANCUN MEXICO  PTSUNNY   84  77  79 E9        29.88S HX  94
COZUMEL MEXICO PTSUNNY   84  79  84 SE9       29.86S HX  96

ADJACENT COASTAL WATERS...

STATION/POSITION TIME  SKY/WX   TEMP    WIND        PRES    WAVE
                                AIR SEA DIR/SP/G            HT/PER
                 (UTC)          (F)     (DEG/KT/KT) (MB)    (FT/S)
PULASKI SHOAL LI 2100            83      90/ 20/ 22 1015.1F
SAND KEY         2050            83                 1015.7S
LONG KEY         NOT AVBL
MOLASSES REEF    2100            82 83   80/ 18/ 20 1016.0S
FOWEY ROCKS      2100            82 83   70/ 23/ 24 1017.1S
Buoy 42097       2030               83                N/A     6/ 6

$$



USA.gov is the U.S. government's official web portal to all federal, state and local government web resources and services.